Starlink 11416

operational
NORAD ID: 62594 Int'l Des: 2025-008 Owner: SPXS Country: US Constellation: starlink
LEOCIRCULAR

Über Starlink 11416

Beschreibung wird geladen...

Live-Position

3D-Globus wird geladen...

Nächste Überflüge

Höhenverlauf

Altitude vs Time

uPlot chart will show altitude changes over time

Zweizeiliger Elementsatz

1 62594U 25008H 25305.60710990 .00315558 00000-0 23670-2 0 9995
2 62594 43.0010 177.8573 0001843 251.8447 108.2220 15.70875254 46976
Epoch: 1. Nov. 2025 • Age: 42 hours

Aktueller Status

Höhe 355.3 km
Geschwindigkeit 7.70 km/s
Subsatellitenpunkt 33.62°N, 135.01°E
Startdatum 13. Jan. 2025
Alter 0.8 years
Typ internet

Technische Details

Klassifizierung Payload
Masse 960.00 kg
Trockenmasse 910.00 kg
Gesamtmasse 960.00 kg
Länge 0.30 m
Durchmesser 4.10 m
Spannweite 29.00 m
Form Box + pan
Hersteller SPXS
Bus-Typ Starlink V2MD
Phasenstatus In Orbit
Besitzer/Staat SPXS/US

Große Konstellationen

Loading constellations...